�������l�o���
Date,Time,MP-1(��Sv/h),MP-2(��Sv/h),MP-3(��Sv/h),MP-4(��Sv/h),MP-5(��Sv/h),MP-6(��Sv/h),MP-7(��Sv/h),MP-8(��Sv/h),����,����(m/s),���J
2020/10/18,00:00,0.638,0.906,0.579,1.113,0.795,0.375,0.651,0.617,���쐼,1.7,�L
2020/10/18,00:10,0.638,0.907,0.578,1.112,0.797,0.377,0.648,0.618,��,2.0,�L
2020/10/18,00:20,0.637,0.904,0.578,1.113,0.795,0.375,0.652,0.618,���쐼,1.2,�L
2020/10/18,00:30,0.637,0.906,0.577,1.113,0.797,0.375,0.651,0.617,��,1.2,��
2020/10/18,00:40,0.638,0.906,0.577,1.114,0.796,0.376,0.651,0.618,��,0.8,��
2020/10/18,00:50,0.637,0.906,0.578,1.112,0.797,0.375,0.650,0.618,���k��,1.7,��
2020/10/18,01:00,0.637,0.908,0.578,1.112,0.797,0.375,0.651,0.618,�k��,3.1,��
2020/10/18,01:10,0.636,0.905,0.578,1.114,0.795,0.375,0.651,0.618,���k��,2.6,��
2020/10/18,01:20,0.638,0.906,0.578,1.113,0.795,0.375,0.652,0.619,�k��,2.8,��
2020/10/18,01:30,0.638,0.905,0.578,1.113,0.796,0.376,0.652,0.618,�k��,3.0,��
2020/10/18,01:40,0.637,0.906,0.578,1.113,0.797,0.376,0.652,0.618,���k��,3.0,��
2020/10/18,01:50,0.638,0.906,0.577,1.112,0.795,0.375,0.651,0.618,���k��,2.6,��
2020/10/18,02:00,0.637,0.904,0.577,1.112,0.795,0.374,0.652,0.617,���k��,1.4,��
2020/10/18,02:10,0.639,0.906,0.579,1.115,0.798,0.374,0.650,0.617,���k��,1.2,��
2020/10/18,02:20,0.637,0.907,0.577,1.113,0.796,0.376,0.651,0.618,��,1.9,��
2020/10/18,02:30,0.637,0.908,0.576,1.115,0.797,0.374,0.653,0.617,��,1.5,��
2020/10/18,02:40,0.638,0.907,0.578,1.114,0.798,0.375,0.651,0.617,���쐼,1.4,��
2020/10/18,02:50,0.638,0.907,0.578,1.114,0.795,0.375,0.653,0.618,���쐼,2.0,��
2020/10/18,03:00,0.637,0.908,0.579,1.114,0.795,0.376,0.652,0.618,��,2.0,��
2020/10/18,03:10,0.638,0.906,0.577,1.116,0.795,0.375,0.651,0.619,���k��,1.4,��
2020/10/18,03:20,0.637,0.908,0.578,1.112,0.796,0.375,0.653,0.617,�k��,1.5,��
2020/10/18,03:30,0.637,0.906,0.578,1.114,0.796,0.374,0.652,0.618,���k��,1.4,��
2020/10/18,03:40,0.637,0.906,0.579,1.117,0.797,0.375,0.651,0.618,��,1.2,��
2020/10/18,03:50,0.638,0.908,0.578,1.114,0.797,0.375,0.651,0.619,��,2.2,��
2020/10/18,04:00,0.638,0.906,0.578,1.114,0.798,0.376,0.653,0.617,��,2.5,��
2020/10/18,04:10,0.636,0.905,0.578,1.116,0.795,0.377,0.653,0.617,���k��,1.9,��
2020/10/18,04:20,0.638,0.908,0.578,1.115,0.798,0.375,0.654,0.617,�k��,1.5,��
2020/10/18,04:30,0.639,0.908,0.578,1.116,0.796,0.376,0.654,0.618,�k�k��,1.2,��
2020/10/18,04:40,0.636,0.908,0.579,1.116,0.798,0.375,0.653,0.617,�k�k��,0.6,��
2020/10/18,04:50,0.637,0.907,0.579,1.117,0.796,0.375,0.652,0.617,�k��,2.0,��
2020/10/18,05:00,0.636,0.908,0.579,1.115,0.797,0.375,0.653,0.619,�k��,3.9,��
2020/10/18,05:10,0.637,0.907,0.578,1.117,0.797,0.375,0.654,0.617,�k�k��,3.8,��
2020/10/18,05:20,0.638,0.908,0.578,1.118,0.798,0.374,0.652,0.619,�k��,5.0,��
2020/10/18,05:30,0.637,0.906,0.579,1.118,0.797,0.375,0.653,0.618,�k��,4.9,��
2020/10/18,05:40,0.637,0.907,0.578,1.115,0.798,0.374,0.653,0.618,�k�k��,4.6,��
2020/10/18,05:50,0.637,0.907,0.580,1.117,0.799,0.377,0.652,0.618,�k�k��,5.3,��
2020/10/18,06:00,0.638,0.908,0.579,1.119,0.797,0.374,0.653,0.619,�k��,5.0,��
2020/10/18,06:10,0.638,0.909,0.578,1.119,0.798,0.375,0.653,0.619,�k�k��,4.6,��
2020/10/18,06:20,0.637,0.907,0.579,1.118,0.798,0.375,0.652,0.617,�k�k��,4.6,��
2020/10/18,06:30,0.638,0.908,0.578,1.119,0.797,0.375,0.652,0.619,�k��,4.2,��
2020/10/18,06:40,0.638,0.908,0.579,1.117,0.798,0.374,0.652,0.619,�k�k��,3.7,��
2020/10/18,06:50,0.638,0.908,0.578,1.118,0.798,0.375,0.653,0.619,�k��,4.2,��
2020/10/18,07:00,0.639,0.908,0.579,1.118,0.798,0.375,0.654,0.619,�k��,4.2,��
2020/10/18,07:10,0.638,0.908,0.579,1.117,0.799,0.376,0.653,0.618,�k�k��,3.4,��
2020/10/18,07:20,0.640,0.911,0.580,1.121,0.798,0.375,0.652,0.619,�k�k��,3.6,��
2020/10/18,07:30,0.640,0.910,0.578,1.119,0.798,0.375,0.653,0.618,�k�k��,3.6,��
2020/10/18,07:40,0.638,0.909,0.578,1.117,0.799,0.375,0.652,0.620,�k��,3.8,��
2020/10/18,07:50,0.639,0.910,0.579,1.119,0.797,0.376,0.654,0.618,�k�k��,4.1,��
2020/10/18,08:00,0.639,0.912,0.580,1.119,0.798,0.374,0.655,0.620,�k�k��,4.4,��
2020/10/18,08:10,0.639,0.912,0.581,1.117,0.800,0.376,0.654,0.619,�k�k��,4.5,��
2020/10/18,08:20,0.639,0.913,0.581,1.119,0.800,0.375,0.654,0.619,�k�k��,4.6,��
2020/10/18,08:30,0.642,0.912,0.581,1.119,0.799,0.376,0.652,0.617,�k�k��,4.3,��
2020/10/18,08:40,0.643,0.912,0.581,1.118,0.800,0.377,0.652,0.620,�k�k��,4.3,��
2020/10/18,08:50,0.643,0.913,0.582,1.119,0.800,0.377,0.653,0.619,�k�k��,3.8,��
2020/10/18,09:00,0.641,0.910,0.582,1.120,0.801,0.376,0.654,0.620,�k�k��,4.3,��
2020/10/18,09:10,0.644,0.913,0.583,1.119,0.800,0.377,0.653,0.621,�k�k��,3.6,��
2020/10/18,09:20,0.645,0.912,0.584,1.122,0.802,0.378,0.655,0.622,�k�k��,3.4,��
2020/10/18,09:30,0.644,0.912,0.583,1.122,0.802,0.376,0.654,0.620,�k�k��,2.8,��
2020/10/18,09:40,0.643,0.915,0.583,1.124,0.803,0.377,0.653,0.621,�k�k��,3.0,��
2020/10/18,09:50,0.644,0.913,0.584,1.122,0.803,0.379,0.655,0.618,�k��,2.3,��
2020/10/18,10:00,0.643,0.915,0.583,1.121,0.801,0.376,0.655,0.620,�k�k��,2.5,��
2020/10/18,10:10,0.645,0.915,0.583,1.121,0.801,0.376,0.654,0.620,�k,2.3,��
2020/10/18,10:20,0.641,0.914,0.583,1.123,0.803,0.375,0.656,0.620,�k�k��,3.5,��
2020/10/18,10:30,0.643,0.918,0.583,1.124,0.802,0.374,0.655,0.620,�k,2.6,��
2020/10/18,10:40,0.645,0.919,0.582,1.122,0.803,0.375,0.657,0.619,�k�k��,2.8,��
2020/10/18,10:50,0.645,0.918,0.582,1.124,0.804,0.376,0.655,0.620,�k,3.4,��
2020/10/18,11:00,0.644,0.917,0.581,1.121,0.805,0.376,0.655,0.620,�k�k��,3.2,��
2020/10/18,11:10,0.645,0.919,0.583,1.126,0.806,0.376,0.657,0.620,�k,3.8,��
2020/10/18,11:20,0.645,0.918,0.584,1.122,0.805,0.375,0.657,0.619,�k,3.2,��
2020/10/18,11:30,0.646,0.920,0.584,1.125,0.807,0.374,0.656,0.620,�k�k��,3.3,��
2020/10/18,11:40,0.647,0.919,0.584,1.125,0.808,0.376,0.656,0.620,�k,4.2,��
2020/10/18,11:50,0.644,0.921,0.583,1.127,0.805,0.375,0.656,0.621,�k,3.6,��
2020/10/18,12:00,0.644,0.919,0.585,1.124,0.805,0.376,0.656,0.618,�k�k��,3.1,��
2020/10/18,12:10,0.643,0.918,0.582,1.124,0.806,0.376,0.656,0.620,�k�k��,4.7,��
2020/10/18,12:20,0.645,0.919,0.584,1.127,0.805,0.375,0.658,0.621,�k�k��,4.6,��
2020/10/18,12:30,0.645,0.919,0.583,1.125,0.806,0.377,0.657,0.619,�k�k��,4.0,��
2020/10/18,12:40,0.644,0.919,0.584,1.126,0.805,0.375,0.655,0.619,�k,3.2,��
2020/10/18,12:50,0.647,0.919,0.584,1.127,0.807,0.376,0.656,0.620,�k�k��,2.5,��
2020/10/18,13:00,0.645,0.918,0.583,1.126,0.807,0.375,0.655,0.620,�k�k��,3.5,��
2020/10/18,13:10,0.646,0.917,0.585,1.125,0.808,0.377,0.657,0.620,�k�k��,3.2,��
2020/10/18,13:20,0.644,0.920,0.584,1.123,0.806,0.378,0.655,0.620,�k�k��,4.1,��
2020/10/18,13:30,0.646,0.921,0.585,1.126,0.807,0.375,0.655,0.620,�k�k��,4.4,��
2020/10/18,13:40,0.646,0.916,0.586,1.127,0.808,0.378,0.655,0.619,�k�k��,3.6,��
2020/10/18,13:50,0.646,0.920,0.585,1.128,0.806,0.377,0.657,0.620,�k�k��,3.0,��
2020/10/18,14:00,0.644,0.920,0.586,1.126,0.807,0.378,0.658,0.621,�k�k��,3.6,��
2020/10/18,14:10,0.646,0.920,0.587,1.126,0.809,0.377,0.656,0.621,�k��,3.2,��
2020/10/18,14:20,0.646,0.921,0.585,1.129,0.806,0.377,0.657,0.620,�k��,2.6,��
2020/10/18,14:30,0.645,0.923,0.586,1.128,0.809,0.378,0.655,0.621,�k�k��,1.7,��
2020/10/18,14:40,0.646,0.922,0.586,1.129,0.809,0.378,0.657,0.621,�k��,1.7,��
2020/10/18,14:50,0.646,0.922,0.588,1.129,0.808,0.377,0.656,0.621,�k��,2.0,��
2020/10/18,15:00,0.647,0.922,0.586,1.128,0.809,0.378,0.656,0.620,�k��,1.9,��
2020/10/18,15:10,0.646,0.922,0.587,1.128,0.810,0.378,0.658,0.621,�k�k��,1.5,��
2020/10/18,15:20,0.646,0.924,0.587,1.127,0.810,0.377,0.657,0.620,�k�k��,1.7,��
2020/10/18,15:30,0.649,0.925,0.588,1.127,0.811,0.379,0.654,0.621,���k��,1.5,��
2020/10/18,15:40,0.648,0.926,0.589,1.129,0.809,0.379,0.655,0.621,���k��,1.5,��
2020/10/18,15:50,0.649,0.925,0.588,1.128,0.813,0.378,0.657,0.621,-,CALM,��
2020/10/18,16:00,0.650,0.924,0.587,1.129,0.810,0.380,0.659,0.620,�k�k��,0.9,��
2020/10/18,16:10,0.649,0.923,0.589,1.128,0.811,0.379,0.657,0.622,�k�k��,1.2,��
2020/10/18,16:20,0.648,0.924,0.587,1.125,0.812,0.379,0.656,0.623,�k��,0.6,��
2020/10/18,16:30,0.650,0.925,0.588,1.127,0.811,0.380,0.656,0.624,-,CALM,��
2020/10/18,16:40,0.647,0.923,0.587,1.127,0.812,0.379,0.656,0.622,���k��,0.9,��
2020/10/18,16:50,0.649,0.924,0.587,1.130,0.810,0.380,0.657,0.623,���쐼,0.9,��
2020/10/18,17:00,0.647,0.925,0.588,1.128,0.811,0.379,0.658,0.623,�쐼,0.6,��
2020/10/18,17:10,0.648,0.923,0.587,1.128,0.812,0.378,0.657,0.623,�k��,0.8,��
2020/10/18,17:20,0.647,0.923,0.587,1.130,0.812,0.379,0.657,0.623,�k��,0.8,��
2020/10/18,17:30,0.645,0.924,0.586,1.129,0.812,0.378,0.659,0.623,�쐼,0.9,��
2020/10/18,17:40,0.646,0.924,0.587,1.128,0.811,0.378,0.658,0.623,�쐼,1.2,��
2020/10/18,17:50,0.647,0.925,0.587,1.126,0.814,0.380,0.656,0.623,�쐼,1.2,��
2020/10/18,18:00,0.649,0.924,0.587,1.128,0.812,0.378,0.658,0.623,���쐼,2.3,��
2020/10/18,18:10,0.645,0.924,0.588,1.126,0.810,0.377,0.658,0.624,���쐼,2.2,��
2020/10/18,18:20,0.648,0.924,0.586,1.126,0.812,0.379,0.657,0.623,�쐼,1.9,��
2020/10/18,18:30,0.648,0.926,0.588,1.127,0.811,0.378,0.659,0.621,�쐼,1.5,��
2020/10/18,18:40,0.648,0.924,0.586,1.128,0.811,0.377,0.659,0.622,���쐼,0.8,��
2020/10/18,18:50,0.648,0.925,0.588,1.128,0.810,0.377,0.657,0.623,���쐼,0.9,��
2020/10/18,19:00,0.647,0.924,0.586,1.129,0.811,0.379,0.659,0.622,��,1.1,��
2020/10/18,19:10,0.648,0.924,0.587,1.130,0.813,0.377,0.656,0.622,�쐼,0.6,��
2020/10/18,19:20,0.647,0.925,0.588,1.130,0.811,0.379,0.658,0.622,���쐼,0.9,��
2020/10/18,19:30,0.647,0.920,0.588,1.128,0.811,0.378,0.656,0.623,�쐼,0.9,��
2020/10/18,19:40,0.648,0.923,0.586,1.130,0.812,0.378,0.659,0.623,�쐼,0.9,��
2020/10/18,19:50,0.646,0.921,0.588,1.129,0.812,0.379,0.657,0.621,�쐼,0.6,��
2020/10/18,20:00,0.646,0.922,0.586,1.129,0.811,0.377,0.658,0.622,��,1.7,��
2020/10/18,20:10,0.646,0.923,0.586,1.130,0.809,0.379,0.657,0.621,���쐼,1.5,��
2020/10/18,20:20,0.647,0.925,0.589,1.128,0.810,0.377,0.658,0.621,���쐼,1.4,��
2020/10/18,20:30,0.649,0.921,0.587,1.128,0.810,0.378,0.658,0.622,���쐼,1.5,��
2020/10/18,20:40,0.647,0.923,0.586,1.129,0.812,0.378,0.658,0.623,�쐼,1.7,��
2020/10/18,20:50,0.646,0.924,0.588,1.131,0.811,0.379,0.657,0.620,��쐼,1.5,��
2020/10/18,21:00,0.646,0.924,0.587,1.129,0.812,0.377,0.658,0.622,�쐼,1.7,��
2020/10/18,21:10,0.647,0.922,0.587,1.130,0.813,0.378,0.657,0.623,�쐼,2.5,��
2020/10/18,21:20,0.646,0.922,0.587,1.128,0.810,0.377,0.658,0.624,�쐼,2.2,��
2020/10/18,21:30,0.646,0.922,0.587,1.128,0.810,0.377,0.657,0.620,�쐼,2.6,��
2020/10/18,21:40,0.647,0.923,0.587,1.128,0.811,0.378,0.658,0.622,�쐼,3.1,��
2020/10/18,21:50,0.647,0.923,0.585,1.130,0.814,0.376,0.658,0.621,���쐼,3.4,��
2020/10/18,22:00,0.647,0.924,0.588,1.130,0.811,0.378,0.658,0.624,���쐼,3.0,��
2020/10/18,22:10,0.648,0.923,0.587,1.130,0.812,0.377,0.657,0.621,�쐼,3.0,��
2020/10/18,22:20,0.648,0.924,0.589,1.130,0.810,0.377,0.658,0.624,�쐼,3.1,��
2020/10/18,22:30,0.647,0.923,0.587,1.130,0.810,0.377,0.657,0.623,�쐼,2.9,��
2020/10/18,22:40,0.645,0.921,0.586,1.129,0.810,0.377,0.657,0.623,�쐼,3.0,��
2020/10/18,22:50,0.647,0.921,0.586,1.128,0.811,0.378,0.656,0.622,�쐼,2.5,��
2020/10/18,23:00,0.648,0.923,0.587,1.133,0.811,0.378,0.657,0.622,�쐼,1.7,��
2020/10/18,23:10,0.649,0.923,0.586,1.130,0.809,0.378,0.657,0.623,�쐼,1.7,��
2020/10/18,23:20,0.649,0.922,0.587,1.131,0.812,0.377,0.657,0.623,�쐼,1.7,��
2020/10/18,23:30,0.648,0.921,0.589,1.129,0.812,0.377,0.658,0.622,�쐼,2.0,��
2020/10/18,23:40,0.646,0.924,0.587,1.131,0.810,0.378,0.658,0.624,��,2.0,��
2020/10/18,23:50,0.648,0.923,0.587,1.129,0.811,0.378,0.658,0.622,���k��,2.0,��
